When you browse on this site, cookies collect data to enhance your experience and personalize the content and advertising you see.
Visit our Privacy Policy to learn more. By continuing to use the site, you agree to this use of cookies and data.
  • In Österreich
  • Länderverzeichnis
  • Für 7 Tage
  • Wassertemperatur
  • Wetterkarte
  • News
  • Widgets
  • user-avatar
    Anmelden

    Stündliche Wetter Pachuca de Soto

    Heute, 22 Januar, Mittwoch

    Zeit Temperatur Niederschläge Wind Luftdruck Luftfeuchtigkeit
    00:00 +8°C° 0 mm 1 m/S 572 mmHg 84%
    01:00 +8°C° 0 mm 1 m/S 571 mmHg 85%
    02:00 +7°C° 0 mm 1 m/S 571 mmHg 86%
    03:00 +7°C° 0 mm 1 m/S 571 mmHg 85%
    04:00 +7°C° 0 mm 1 m/S 570 mmHg 83%
    05:00 +7°C° 0 mm 1 m/S 570 mmHg 82%
    06:00 +9°C° 0 mm 1 m/S 571 mmHg 74%
    07:00 +9°C° 0 mm 2 m/S 572 mmHg 67%
    08:00 +12°C° 0 mm 2 m/S 573 mmHg 59%
    09:00 +14°C° 0 mm 2 m/S 574 mmHg 52%
    10:00 +16°C° 0 mm 3 m/S 574 mmHg 45%
    11:00 +18°C° 0 mm 3 m/S 575 mmHg 38%
    12:00 +19°C° 0 mm 3 m/S 574 mmHg 36%
    13:00 +19°C° 0 mm 3 m/S 574 mmHg 34%
    14:00 +20°C° 0 mm 3 m/S 573 mmHg 32%
    15:00 +19°C° 0 mm 3 m/S 573 mmHg 36%
    16:00 +18°C° 0 mm 3 m/S 573 mmHg 41%
    17:00 +18°C° 0 mm 2 m/S 572 mmHg 46%
    18:00 +17°C° 0 mm 2 m/S 572 mmHg 50%
    19:00 +16°C° 0 mm 1 m/S 573 mmHg 55%
    20:00 +15°C° 0 mm 1 m/S 573 mmHg 59%
    21:00 +14°C° 0 mm 1 m/S 573 mmHg 62%
    22:00 +14°C° 0 mm 1 m/S 572 mmHg 66%
    23:00 +13°C° 0 mm 1 m/S 572 mmHg 69%

    Morgen, 23 Januar, Donnerstag

    Zeit Temperatur Niederschläge Wind Luftdruck Luftfeuchtigkeit
    00:00 +13°C° 0 mm 1 m/S 572 mmHg 73%
    01:00 +12°C° 0 mm 1 m/S 571 mmHg 78%
    02:00 +11°C° 0 mm 1 m/S 570 mmHg 82%
    03:00 +11°C° 0 mm 1 m/S 570 mmHg 84%
    04:00 +11°C° 0 mm 1 m/S 570 mmHg 86%
    05:00 +10°C° 0 mm 0 m/S 570 mmHg 88%
    06:00 +11°C° 0 mm 1 m/S 570 mmHg 83%
    07:00 +12°C° 0 mm 1 m/S 571 mmHg 79%
    08:00 +13°C° 0 mm 1 m/S 572 mmHg 74%
    09:00 +14°C° 0.2 mm 1 m/S 572 mmHg 67%
    10:00 +15°C° 0.2 mm 2 m/S 573 mmHg 60%
    11:00 +17°C° 0.2 mm 2 m/S 573 mmHg 53%
    12:00 +17°C° 0.4 mm 3 m/S 572 mmHg 55%
    13:00 +16°C° 0.4 mm 3 m/S 572 mmHg 56%
    14:00 +16°C° 0.4 mm 3 m/S 571 mmHg 58%
    15:00 +14°C° 0.9 mm 3 m/S 570 mmHg 67%
    16:00 +13°C° 0.9 mm 2 m/S 570 mmHg 76%
    17:00 +12°C° 0.9 mm 2 m/S 569 mmHg 85%
    18:00 +10°C° 1.4 mm 2 m/S 570 mmHg 84%
    19:00 +10°C° 1.4 mm 2 m/S 570 mmHg 83%
    20:00 +11°C° 1.4 mm 1 m/S 571 mmHg 83%
    21:00 +11°C° 0.6 mm 1 m/S 571 mmHg 82%
    22:00 +11°C° 0.6 mm 1 m/S 571 mmHg 82%
    23:00 +11°C° 0.6 mm 1 m/S 571 mmHg 82%

    übermorgen, 24 Januar, Freitag

    Zeit Temperatur Niederschläge Wind Luftdruck Luftfeuchtigkeit
    00:00 +11°C° 0.2 mm 1 m/S 570 mmHg 82%
    01:00 +11°C° 0.2 mm 1 m/S 570 mmHg 82%
    02:00 +10°C° 0.2 mm 1 m/S 570 mmHg 82%
    03:00 +10°C° 0 mm 1 m/S 570 mmHg 83%
    04:00 +10°C° 0 mm 1 m/S 570 mmHg 83%
    05:00 +10°C° 0 mm 1 m/S 570 mmHg 83%
    06:00 +11°C° 0 mm 1 m/S 571 mmHg 81%
    07:00 +11°C° 0 mm 1 m/S 572 mmHg 78%
    08:00 +11°C° 0 mm 1 m/S 572 mmHg 75%
    09:00 +12°C° 0 mm 1 m/S 573 mmHg 71%
    10:00 +13°C° 0 mm 1 m/S 573 mmHg 66%
    11:00 +15°C° 0 mm 1 m/S 573 mmHg 62%
    12:00 +15°C° 0.1 mm 1 m/S 573 mmHg 61%
    13:00 +15°C° 0.1 mm 2 m/S 572 mmHg 60%
    14:00 +16°C° 0.1 mm 2 m/S 572 mmHg 59%
    15:00 +15°C° 0.1 mm 2 m/S 572 mmHg 65%
    16:00 +14°C° 0.1 mm 2 m/S 571 mmHg 71%
    17:00 +13°C° 0.1 mm 2 m/S 571 mmHg 77%
    18:00 +13°C° 0.1 mm 2 m/S 571 mmHg 81%
    19:00 +12°C° 0.1 mm 2 m/S 571 mmHg 86%
    20:00 +10°C° 0.1 mm 2 m/S 571 mmHg 90%
    21:00 +11°C° 0 mm 1 m/S 571 mmHg 91%
    22:00 +11°C° 0 mm 1 m/S 571 mmHg 91%
    23:00 +11°C° 0 mm 1 m/S 571 mmHg 92%

    25 Januar, Samstag

    Zeit Temperatur Niederschläge Wind Luftdruck Luftfeuchtigkeit
    00:00 +11°C° 0 mm 1 m/S 571 mmHg 91%
    01:00 +9°C° 0 mm 0 m/S 571 mmHg 90%
    02:00 +9°C° 0 mm 0 m/S 570 mmHg 89%
    03:00 +9°C° 0 mm 0 m/S 570 mmHg 89%
    04:00 +10°C° 0 mm 1 m/S 570 mmHg 90%
    05:00 +9°C° 0 mm 1 m/S 570 mmHg 90%
    06:00 +10°C° 0 mm 1 m/S 571 mmHg 84%
    07:00 +12°C° 0 mm 1 m/S 572 mmHg 78%
    08:00 +13°C° 0 mm 1 m/S 573 mmHg 73%
    09:00 +14°C° 0 mm 1 m/S 574 mmHg 63%
    10:00 +16°C° 0 mm 2 m/S 574 mmHg 53%
    11:00 +18°C° 0 mm 2 m/S 575 mmHg 44%
    12:00 +19°C° 0 mm 2 m/S 575 mmHg 41%
    13:00 +20°C° 0 mm 2 m/S 574 mmHg 37%
    14:00 +20°C° 0 mm 3 m/S 574 mmHg 34%
    15:00 +20°C° 0.1 mm 3 m/S 574 mmHg 39%
    16:00 +19°C° 0.1 mm 2 m/S 573 mmHg 45%
    17:00 +18°C° 0.1 mm 2 m/S 573 mmHg 50%
    18:00 +16°C° 0.1 mm 2 m/S 573 mmHg 57%
    19:00 +15°C° 0.1 mm 2 m/S 572 mmHg 64%
    20:00 +13°C° 0.1 mm 1 m/S 572 mmHg 71%
    21:00 +13°C° 0 mm 1 m/S 572 mmHg 72%
    22:00 +13°C° 0 mm 1 m/S 572 mmHg 73%
    23:00 +12°C° 0 mm 1 m/S 572 mmHg 73%

    26 Januar, Sonntag

    Zeit Temperatur Niederschläge Wind Luftdruck Luftfeuchtigkeit
    00:00 +12°C° 0 mm 1 m/S 571 mmHg 74%
    01:00 +11°C° 0 mm 1 m/S 571 mmHg 75%
    02:00 +11°C° 0 mm 1 m/S 570 mmHg 76%
    03:00 +11°C° 0 mm 1 m/S 570 mmHg 77%
    04:00 +10°C° 0 mm 1 m/S 570 mmHg 78%
    05:00 +10°C° 0 mm 1 m/S 570 mmHg 79%
    06:00 +11°C° 0 mm 1 m/S 571 mmHg 74%
    07:00 +12°C° 0 mm 1 m/S 572 mmHg 69%
    08:00 +13°C° 0 mm 1 m/S 573 mmHg 64%
    09:00 +15°C° 0 mm 2 m/S 574 mmHg 55%
    10:00 +17°C° 0 mm 2 m/S 574 mmHg 45%
    11:00 +19°C° 0 mm 3 m/S 575 mmHg 36%
    12:00 +19°C° 0.1 mm 3 m/S 574 mmHg 35%
    13:00 +19°C° 0.1 mm 3 m/S 574 mmHg 35%
    14:00 +20°C° 0.1 mm 4 m/S 574 mmHg 34%
    15:00 +18°C° 0.3 mm 4 m/S 573 mmHg 41%
    16:00 +17°C° 0.3 mm 3 m/S 573 mmHg 47%
    17:00 +16°C° 0.3 mm 3 m/S 572 mmHg 53%
    18:00 +14°C° 0.3 mm 3 m/S 572 mmHg 57%
    19:00 +14°C° 0.3 mm 2 m/S 573 mmHg 60%
    20:00 +13°C° 0.3 mm 2 m/S 573 mmHg 64%
    21:00 +12°C° 0.1 mm 1 m/S 572 mmHg 69%
    22:00 +11°C° 0.1 mm 1 m/S 572 mmHg 74%
    23:00 +11°C° 0.1 mm 1 m/S 572 mmHg 78%

    27 Januar, Montag

    Zeit Temperatur Niederschläge Wind Luftdruck Luftfeuchtigkeit
    00:00 +10°C° 0.1 mm 1 m/S 571 mmHg 81%
    01:00 +10°C° 0.1 mm 1 m/S 571 mmHg 83%
    02:00 +9°C° 0.1 mm 1 m/S 570 mmHg 86%
    03:00 +9°C° 0 mm 1 m/S 570 mmHg 87%
    04:00 +8°C° 0 mm 0 m/S 570 mmHg 88%
    05:00 +8°C° 0 mm 0 m/S 570 mmHg 89%
    06:00 +8°C° 0 mm 0 m/S 571 mmHg 84%
    07:00 +9°C° 0 mm 0 m/S 572 mmHg 79%
    08:00 +10°C° 0 mm 0 m/S 572 mmHg 74%
    09:00 +13°C° 0 mm 1 m/S 573 mmHg 63%
    10:00 +15°C° 0 mm 1 m/S 573 mmHg 52%
    11:00 +17°C° 0 mm 2 m/S 574 mmHg 41%
    12:00 +17°C° 0 mm 2 m/S 574 mmHg 36%
    13:00 +18°C° 0 mm 2 m/S 573 mmHg 31%
    14:00 +19°C° 0 mm 2 m/S 573 mmHg 27%
    15:00 +18°C° 0 mm 2 m/S 573 mmHg 34%
    16:00 +17°C° 0 mm 2 m/S 572 mmHg 41%
    17:00 +16°C° 0 mm 2 m/S 572 mmHg 48%
    18:00 +15°C° 0 mm 2 m/S 571 mmHg 59%
    19:00 +13°C° 0 mm 1 m/S 571 mmHg 70%
    20:00 +12°C° 0 mm 1 m/S 571 mmHg 82%
    21:00 +11°C° 0 mm 1 m/S 571 mmHg 77%
    22:00 +11°C° 0 mm 1 m/S 570 mmHg 73%
    23:00 +11°C° 0 mm 1 m/S 570 mmHg 69%
    Mehr zeigen